CZ-6A DEB, 61421

Orbit data source: Space-Track

CZ-6A DEB, 61421 is space debris in LEO originally from a launch on Tue, 06 Aug 2024 UTC launched from the Taiyaun Space Center, China (TSC). Debris objects in space refer to the collection of defunct objects orbiting the Earth. Examples of debris include non-operational satellites, rocket bodies, and fragments generated from explosions, collisions, or faulty payload assembly.

Loading next visibility...
Identifier
61421, 2024-140YN
Orbit
LEO
Country
Flag of CNCN / PRC
Related business
Manufacturer
SAST
Mission
Spacecraft
Bus & Motor
Unknown
Mass
Unknown
Launch date (UTC)
2024-08-06 (2 years ago)
Launch vehicle
Unknown
Launch site
Taiyaun Space Center, China (TSC)
Object type
Payload
Rocket body
Debris
Shape & HBR
Unknown shape, 0.1 m
Radar Cross Section
Small (<0.1 m²)

Expand to show TLE details & history
Last TLE update: 14 hours ago

TLE from 14 hours ago
0 CZ-6A DEB
1 61421U 24140YN  26118.43932325  .00001959  00000-0  92232-3 0  9999
2 61421  89.1441 291.4819 0066235  11.3995 348.8675 14.18464733 84427
Epoch: 2026-04-28T10:32Z
TLE epoch observation values (Epoch: 2026-04-28T10:32:37.528Z)
Latitude
-0.0001°
Longitude
-83.08909°
Altitude
786.755 km
Speed
7.485 km/s
True Right ascension
19h 25m 55s
True Declination
0° 00' 00"
Sunlit
Object was in daylight at epoch
Visualization orbit readout
Latitude
Unknown
Longitude
Unknown
Altitude
Unknown
Speed
Unknown
Apparent Right ascension
Unknown
Apparent Declination
Unknown
Sunlit
N/A
Visualization observer readout
Local Sidereal Time
08:23:40
Azimuth
Unknown
Elevation
Unknown
Doppler factor
Unknown
Orbital elements
Apogee altitude
875.229 km
Perigee altitude
779.776 km
Semi-major axis
7,205.639 km
Eccentricity
0.00662
Inclination
89.1441°
RAAN
291.4819°
Arg. of periapsis
11.3995°
True anomaly
348.71975°
Mean anomaly
348.8675°
Eccentric anomaly
348.79375°
Mean motion
3.54842 °/min
Orbital period
101.45 mins
BSTAR
0.00092232
Loading maneuver chart data...
Computing Atmospheric mass density...
Loading historical data...
Loading historical data...
Loading historical data...
Loading historical data...
Loading historical data...
Loading historical data...
Loading historical data...

Documentation

Showing up to 5 results
|